When you browse on this site, cookies collect data to enhance your experience and personalize the content and advertising you see.
Visit our Privacy Policy to learn more. By continuing to use the site, you agree to this use of cookies and data.
  • In Sweden
  • List of Countries
  • For 7 days
  • Water Temperature
  • Weather Map
  • Weather Widgets
  • user-avatar
    Login

    Hourly Weather Téglás

    Today, 22 October, Tuesday

    Time Temperature Precipitation Wind Pressure Humidity
    00:00 +18°C° 0 mm 1 mps 756 mmHg 60%
    01:00 +18°C° 0 mm 1 mps 756 mmHg 63%
    02:00 +18°C° 0 mm 1 mps 756 mmHg 64%
    03:00 +16°C° 0 mm 1 mps 756 mmHg 65%
    04:00 +16°C° 0 mm 1 mps 756 mmHg 67%
    05:00 +16°C° 0 mm 1 mps 756 mmHg 67%
    06:00 +16°C° 0 mm 1 mps 756 mmHg 67%
    07:00 +16°C° 0 mm 1 mps 757 mmHg 64%
    08:00 +19°C° 0 mm 1 mps 757 mmHg 59%
    09:00 +21°C° 0 mm 1 mps 757 mmHg 53%
    10:00 +22°C° 0 mm 1 mps 757 mmHg 47%
    11:00 +24°C° 0 mm 1 mps 757 mmHg 45%
    12:00 +25°C° 0 mm 1 mps 756 mmHg 43%
    13:00 +25°C° 0 mm 1 mps 756 mmHg 42%
    14:00 +25°C° 0 mm 1 mps 756 mmHg 45%
    15:00 +22°C° 0 mm 0 mps 756 mmHg 48%
    16:00 +21°C° 0 mm 0 mps 756 mmHg 51%
    17:00 +20°C° 0 mm 0 mps 756 mmHg 54%
    18:00 +19°C° 0 mm 0 mps 756 mmHg 56%
    19:00 +18°C° 0 mm 0 mps 756 mmHg 59%
    20:00 +18°C° 0 mm 0 mps 756 mmHg 60%
    21:00 +17°C° 0 mm 0 mps 756 mmHg 61%
    22:00 +19°C° 0 mm 1 mps 756 mmHg 63%
    23:00 +18°C° 0 mm 1 mps 756 mmHg 64%

    Tomorrow, 23 October, Wednesday

    Time Temperature Precipitation Wind Pressure Humidity
    00:00 +18°C° 0 mm 1 mps 756 mmHg 66%
    01:00 +18°C° 0 mm 1 mps 756 mmHg 67%
    02:00 +16°C° 0 mm 1 mps 756 mmHg 69%
    03:00 +16°C° 0 mm 1 mps 756 mmHg 70%
    04:00 +16°C° 0 mm 1 mps 756 mmHg 72%
    05:00 +16°C° 0 mm 1 mps 756 mmHg 72%
    06:00 +16°C° 0 mm 1 mps 756 mmHg 72%
    07:00 +16°C° 0 mm 1 mps 756 mmHg 72%
    08:00 +19°C° 0 mm 1 mps 756 mmHg 65%
    09:00 +21°C° 0 mm 1 mps 755 mmHg 58%
    10:00 +23°C° 0 mm 2 mps 755 mmHg 51%
    11:00 +24°C° 0 mm 1 mps 755 mmHg 48%
    12:00 +25°C° 0 mm 1 mps 755 mmHg 45%
    13:00 +26°C° 0 mm 1 mps 755 mmHg 42%
    14:00 +25°C° 0 mm 1 mps 754 mmHg 45%
    15:00 +24°C° 0 mm 1 mps 754 mmHg 48%
    16:00 +23°C° 0 mm 1 mps 754 mmHg 51%
    17:00 +21°C° 0 mm 2 mps 754 mmHg 54%
    18:00 +20°C° 0 mm 2 mps 754 mmHg 58%
    19:00 +19°C° 0 mm 2 mps 754 mmHg 61%
    20:00 +18°C° 0 mm 2 mps 754 mmHg 62%
    21:00 +18°C° 0 mm 2 mps 754 mmHg 63%
    22:00 +18°C° 0 mm 1 mps 753 mmHg 64%
    23:00 +18°C° 0 mm 1 mps 753 mmHg 65%

    Day after tomorrow, 24 October, Thursday

    Time Temperature Precipitation Wind Pressure Humidity
    00:00 +18°C° 0 mm 1 mps 753 mmHg 66%
    01:00 +16°C° 0 mm 1 mps 753 mmHg 67%
    02:00 +16°C° 0 mm 1 mps 753 mmHg 68%
    03:00 +16°C° 0 mm 1 mps 753 mmHg 69%
    04:00 +15°C° 0 mm 1 mps 753 mmHg 71%
    05:00 +15°C° 0 mm 1 mps 753 mmHg 71%
    06:00 +15°C° 0 mm 1 mps 753 mmHg 71%
    07:00 +15°C° 0 mm 1 mps 752 mmHg 71%
    08:00 +18°C° 0 mm 1 mps 752 mmHg 64%
    09:00 +20°C° 0 mm 1 mps 752 mmHg 56%
    10:00 +20°C° 0 mm 0 mps 752 mmHg 48%
    11:00 +24°C° 0 mm 1 mps 752 mmHg 44%
    12:00 +25°C° 0 mm 1 mps 752 mmHg 39%
    13:00 +26°C° 0 mm 1 mps 752 mmHg 34%
    14:00 +25°C° 0 mm 1 mps 751 mmHg 37%
    15:00 +24°C° 0 mm 1 mps 751 mmHg 39%
    16:00 +23°C° 0 mm 1 mps 751 mmHg 42%
    17:00 +22°C° 0 mm 1 mps 751 mmHg 45%
    18:00 +21°C° 0 mm 1 mps 751 mmHg 48%
    19:00 +20°C° 0 mm 1 mps 751 mmHg 52%
    20:00 +19°C° 0 mm 1 mps 751 mmHg 53%
    21:00 +19°C° 0 mm 1 mps 751 mmHg 55%
    22:00 +18°C° 0 mm 1 mps 751 mmHg 57%
    23:00 +16°C° 0 mm 0 mps 751 mmHg 58%

    25 October, Friday

    Time Temperature Precipitation Wind Pressure Humidity
    00:00 +15°C° 0 mm 0 mps 751 mmHg 59%
    01:00 +15°C° 0 mm 0 mps 751 mmHg 60%
    02:00 +15°C° 0 mm 0 mps 751 mmHg 61%
    03:00 +14°C° 0 mm 0 mps 752 mmHg 61%
    04:00 +14°C° 0 mm 0 mps 752 mmHg 62%
    05:00 +14°C° 0 mm 0 mps 752 mmHg 62%
    06:00 +14°C° 0 mm 0 mps 752 mmHg 62%
    07:00 +14°C° 0 mm 0 mps 752 mmHg 62%
    08:00 +16°C° 0 mm 0 mps 753 mmHg 54%
    09:00 +20°C° 0 mm 1 mps 753 mmHg 47%
    10:00 +22°C° 0 mm 1 mps 753 mmHg 40%
    11:00 +23°C° 0 mm 1 mps 753 mmHg 37%
    12:00 +24°C° 0 mm 1 mps 753 mmHg 35%
    13:00 +25°C° 0 mm 1 mps 753 mmHg 32%
    14:00 +24°C° 0 mm 1 mps 753 mmHg 36%
    15:00 +23°C° 0 mm 1 mps 753 mmHg 39%
    16:00 +21°C° 0 mm 1 mps 753 mmHg 42%
    17:00 +20°C° 0 mm 1 mps 753 mmHg 45%
    18:00 +19°C° 0 mm 1 mps 753 mmHg 48%
    19:00 +17°C° 0 mm 2 mps 754 mmHg 51%
    20:00 +17°C° 0 mm 2 mps 754 mmHg 55%
    21:00 +16°C° 0 mm 2 mps 754 mmHg 59%
    22:00 +15°C° 0 mm 2 mps 754 mmHg 63%
    23:00 +15°C° 0 mm 2 mps 754 mmHg 68%

    26 October, Saturday

    Time Temperature Precipitation Wind Pressure Humidity
    00:00 +14°C° 0 mm 2 mps 754 mmHg 73%
    01:00 +14°C° 0 mm 1 mps 754 mmHg 78%
    02:00 +13°C° 0 mm 1 mps 754 mmHg 80%
    03:00 +13°C° 0 mm 1 mps 754 mmHg 82%
    04:00 +13°C° 0 mm 1 mps 754 mmHg 84%
    05:00 +13°C° 0 mm 1 mps 754 mmHg 83%
    06:00 +12°C° 0 mm 0 mps 754 mmHg 81%
    07:00 +12°C° 0 mm 0 mps 754 mmHg 80%
    08:00 +15°C° 0 mm 1 mps 754 mmHg 71%
    09:00 +18°C° 0 mm 1 mps 754 mmHg 62%
    10:00 +20°C° 0 mm 1 mps 755 mmHg 53%
    11:00 +20°C° 0 mm 2 mps 754 mmHg 48%
    12:00 +21°C° 0 mm 2 mps 754 mmHg 43%
    13:00 +24°C° 0 mm 3 mps 754 mmHg 39%
    14:00 +23°C° 0 mm 2 mps 754 mmHg 41%
    15:00 +21°C° 0 mm 2 mps 753 mmHg 43%
    16:00 +19°C° 0 mm 2 mps 753 mmHg 46%
    17:00 +18°C° 0 mm 2 mps 753 mmHg 48%
    18:00 +18°C° 0 mm 1 mps 753 mmHg 50%
    19:00 +16°C° 0 mm 1 mps 753 mmHg 52%
    20:00 +16°C° 0 mm 2 mps 753 mmHg 53%
    21:00 +16°C° 0 mm 2 mps 753 mmHg 54%
    22:00 +15°C° 0 mm 2 mps 753 mmHg 55%
    23:00 +15°C° 0 mm 2 mps 753 mmHg 57%

    27 October, Sunday

    Time Temperature Precipitation Wind Pressure Humidity
    00:00 +14°C° 0 mm 2 mps 753 mmHg 58%
    01:00 +14°C° 0 mm 2 mps 753 mmHg 59%
    02:00 +14°C° 0 mm 2 mps 753 mmHg 61%
    03:00 +13°C° 0 mm 2 mps 753 mmHg 62%
    04:00 +13°C° 0 mm 2 mps 753 mmHg 64%
    05:00 +13°C° 0 mm 2 mps 753 mmHg 65%
    06:00 +12°C° 0 mm 3 mps 752 mmHg 66%
    07:00 +12°C° 0 mm 3 mps 752 mmHg 68%
    08:00 +14°C° 0 mm 3 mps 752 mmHg 62%
    09:00 +17°C° 0 mm 3 mps 752 mmHg 57%
    10:00 +18°C° 0 mm 4 mps 752 mmHg 51%
    11:00 +19°C° 0 mm 4 mps 752 mmHg 50%
    12:00 +20°C° 0 mm 4 mps 752 mmHg 49%
    13:00 +21°C° 0 mm 4 mps 751 mmHg 48%
    14:00 +20°C° 0 mm 4 mps 751 mmHg 51%
    15:00 +20°C° 0 mm 3 mps 751 mmHg 54%
    16:00 +19°C° 0 mm 2 mps 751 mmHg 57%
    17:00 +18°C° 0 mm 3 mps 752 mmHg 59%
    18:00 +17°C° 0 mm 3 mps 752 mmHg 62%
    19:00 +16°C° 0 mm 3 mps 752 mmHg 65%
    20:00 +14°C° 0 mm 4 mps 753 mmHg 61%
    21:00 +13°C° 0 mm 5 mps 753 mmHg 57%
    22:00 +12°C° 0 mm 5 mps 753 mmHg 53%
    23:00 +10°C° 0 mm 5 mps 753 mmHg 50%

    28 October, Monday

    Time Temperature Precipitation Wind Pressure Humidity
    00:00 +10°C° 0 mm 5 mps 753 mmHg 47%
    01:00 +10°C° 0 mm 4 mps 753 mmHg 43%
    02:00 +10°C° 0 mm 4 mps 753 mmHg 44%
    03:00 +9°C° 0 mm 5 mps 753 mmHg 46%
    04:00 +8°C° 0 mm 5 mps 753 mmHg 47%
    05:00 +8°C° 0 mm 4 mps 753 mmHg 48%
    06:00 +8°C° 0 mm 4 mps 753 mmHg 50%
    07:00 +9°C° 0 mm 3 mps 753 mmHg 51%
    08:00 +10°C° 0 mm 3 mps 753 mmHg 49%
    09:00 +11°C° 0 mm 3 mps 753 mmHg 48%
    10:00 +12°C° 0 mm 2 mps 753 mmHg 46%
    11:00 +12°C° 0 mm 2 mps 753 mmHg 46%
    12:00 +12°C° 0 mm 2 mps 753 mmHg 46%
    13:00 +13°C° 0 mm 1 mps 753 mmHg 46%
    14:00 +12°C° 0 mm 2 mps 753 mmHg 50%
    15:00 +12°C° 0 mm 2 mps 752 mmHg 53%
    16:00 +10°C° 0 mm 2 mps 752 mmHg 57%
    17:00 +10°C° 0 mm 2 mps 752 mmHg 61%
    18:00 +10°C° 0 mm 2 mps 752 mmHg 66%
    19:00 +9°C° 0 mm 2 mps 752 mmHg 71%
    20:00 +9°C° 0 mm 2 mps 752 mmHg 74%
    21:00 +9°C° 0 mm 1 mps 753 mmHg 78%
    22:00 +9°C° 0 mm 1 mps 753 mmHg 82%
    23:00 +9°C° 0 mm 1 mps 752 mmHg 81%
    Show more